Weather in Ust-Es

Russia / Republic of Khakassia     52°57′19″N   90°14′54″E
temp.,
°C
wind,
m/s
gust,
m/s
humid.,
%
clouds,
%
prec.,
mm/h
press.,
hPa
HPBL,
m
25 february, thu
thu2501:00−14ssw1291100 0.0 101520
04:00−11w1189100 0.0 101321
07:00−7ssw2296100 0.3 101370
10:00−5wsw3493100 0.0 1012229
13:00−5w6778100 0.1 1014996
16:00−9wnw5774100 0.0 10171038
19:00−14wnw2277100 0.0 102121
22:00−15wnw41282100 0.1 1024558
26 february, fri
fri2601:00−19s2284100 0.1 102723
04:00−20wsw1192100 0.0 102820
07:00−21w2296100 0.1 103120
10:00−19wsw71178100 0.0 10311180
13:00−20wsw91472100 0.0 10331686
16:00−18wsw81574100 0.0 10341812
19:00−20sw4984100 0.0 1037335
22:00−22sw51281100 0.0 1038485
27 february, sat
sat2701:00−22sw51386100 0.0 1039443
04:00−22sw51384100 0.0 1040414
07:00−24sw3587100 0.0 1040103
10:00−21sw2487100 0.0 1039227
13:00−17sw4676100 0.0 1038829
16:00−15sw4675100 0.0 1037988
19:00−18sw2383100 0.0 103823
22:00−19sw2287100 0.0 104023
28 february, sun
sun2801:00−20sw2292100 0.0 104025
04:00−21wsw2392100 0.0 104127
07:00−22wsw229199 0.0 104225
10:00−19wsw2392100 0.0 1041102
13:00−14wsw238192 0.0 1039310
16:00−11ssw23754 0.0 1037332
19:00−16s118140 0.0 103820
22:00−16wnw0182100 0.0 103820
1 march, mon
mon101:00−18ne118897 0.0 103720
04:00−18ne1192100 0.0 103520
07:00−19n1193100 0.0 103320
10:00−15n0086100 0.0 1029120
13:00−11wnw0179100 0.0 1025248
16:00−9sw1193100 0.3 1021167
19:00−8sw2296100 0.9 102063
22:00−5sw3895100 0.3 1020222